Temperature
20 20 19 19 19 18 18 18 17 17 17 17 17 16 16 16 16 16 16 16 16 16 15 15 15 15 15 15 15 14 14 14 14 13 12 12 12 12 12 12 12 12 12
20 20 19 19 19 18 18 18 17 17 17 17 16 16 16 16 16 16 16 16 15 15 15 15 15 15 15 14 14 14 14 14 14 13 12 12 12 12 12 12 12 11 11
20 20 19 19 19 18 18 17 17 17 17 16 16 16 16 16 15 15 15 15 15 15 15 15 14 14 14 14 14 14 14 13 13 13 12 12 12 11 11 11 11 11 11
20 20 19 19 19 18 18 17 17 16 16 16 16 16 16 15 15 15 15 15 15 15 14 14 14 14 14 14 14 14 13 13 13 13 12 12 12 11 11 11 11 11 10
20 20 19 19 18 18 18 17 17 16 16 16 16 15 15 15 15 15 15 15 15 14 14 14 14 14 13 13 13 13 13 13 13 12 12 12 11 11 11 11 11 10 10
20 20 19 19 18 18 17 17 16 16 16 16 15 15 15 15 15 14 14 14 14 14 14 14 13 13 13 13 13 13 13 13 12 12 12 12 11 11 11 11 10 10 10
20 20 19 19 18 18 17 17 16 16 16 15 15 15 15 14 14 14 14 14 14 14 13 13 13 13 13 13 12 12 12 12 12 12 12 11 11 11 11 10 10 10 10
20 20 19 18 18 17 17 17 16 16 15 15 15 15 14 14 14 14 14 13 13 13 13 13 13 12 12 12 12 12 12 11 11 11 11 11 11 11 10 10 10 10 9
20 19 19 18 18 17 17 17 16 16 15 15 15 14 14 14 14 13 13 13 13 13 13 12 12 12 12 12 12 12 11 11 11 11 11 11 10 10 10 10 10 9 9
20 19 19 18 18 17 17 16 16 15 15 15 14 14 14 14 13 13 13 13 13 12 12 12 12 12 12 11 11 11 11 11 11 11 10 10 10 10 10 10 9 9 9
19 19 18 18 17 16 16 16 15 15 15 14 14 14 13 13 13 13 13 12 12 12 12 12 12 11 11 11 11 11 11 11 10 10 10 10 10 10 9 9 9 9 9
19 18 18 17 17 16 16 15 15 15 14 14 14 14 13 13 13 12 12 12 12 12 12 11 11 11 11 11 11 11 10 10 10 10 10 10 10 9 9 9 9 9 9
19 18 18 17 16 16 16 15 15 15 14 14 14 14 13 13 13 12 12 12 12 11 11 11 11 11 11 11 10 10 10 10 10 10 10 9 9 9 9 9 9 9 9
18 18 17 17 16 16 15 15 15 15 14 14 14 13 13 13 13 12 12 12 11 11 11 11 11 10 10 10 10 10 10 10 10 10 9 9 9 9 9 9 9 8 8
18 17 17 16 16 16 16 15 15 15 14 14 14 13 13 13 13 12 12 12 11 11 11 11 10 10 10 10 10 10 10 10 9 9 9 9 9 9 9 9 8 8 8
17 17 17 16 16 16 15 15 15 14 14 13 13 13 13 13 12 12 12 11 11 11 11 11 10 10 10 10 10 10 10 9 9 9 9 9 9 9 8 8 8 8 8
17 17 16 16 15 15 15 15 14 14 14 13 13 13 13 12 12 12 12 11 11 11 10 10 10 10 10 10 10 10 10 9 9 9 9 9 9 8 8 8 8 8 8
16 16 16 16 15 15 15 14 14 14 14 13 13 13 12 12 12 12 11 11 11 10 10 10 10 10 10 10 10 9 9 9 9 9 9 8 8 8 8 8 8 8 8
16 16 16 15 15 15 15 14 14 14 13 13 13 13 12 12 11 11 11 11 11 10 10 10 10 10 10 10 9 9 9 9 9 9 9 8 8 8 8 8 8 8 8
16 15 15 15 15 15 14 14 13 13 13 13 13 13 12 12 11 11 11 11 11 10 10 10 10 10 10 10 9 9 9 9 9 9 9 8 8 8 8 8 8 8 8
15 15 15 14 14 14 14 14 13 13 13 13 13 12 12 12 12 11 11 11 11 11 10 10 10 10 10 10 9 9 9 9 9 9 8 8 8 8 8 8 8 8 8
14 14 14 14 14 14 14 13 13 13 13 13 12 12 12 12 11 11 11 11 11 11 11 10 10 10 10 9 9 9 9 9 9 8 8 8 8 8 8 8 7 7 7
14 14 14 14 13 13 13 13 13 13 13 13 12 12 12 12 12 11 11 11 11 11 10 10 10 10 9 9 9 9 9 9 8 8 8 8 8 8 7 7 7 7 7
14 14 13 13 13 13 13 12 12 12 12 12 12 12 12 12 12 11 11 11 11 11 10 10 10 10 9 9 9 9 9 8 8 8 8 8 7 7 7 7 7 7 7
13 13 13 13 13 13 12 12 12 12 12 12 12 12 12 12 11 11 11 11 11 10 10 10 10 9 9 9 9 8 8 8 8 8 8 7 7 7 7 6 6 6 6
13 13 13 12 12 12 12 12 12 12 12 12 12 12 12 11 11 11 11 11 11 10 10 10 9 9 9 9 8 8 8 8 8 7 7 7 7 7 6 6 6 6 6
Wind_Speed
6 5 5 4 3 3 3 2 2 3 3 3 3 3 3 4 3 4 4 3 4 3 3 3 2 2 2 2 2 2 3 4 5 3 2 3 4 6 7 8 9 10 11
7 6 5 4 4 4 3 3 3 4 3 3 4 4 4 4 4 4 4 4 4 4 4 4 3 3 4 3 3 3 3 4 6 6 3 2 3 4 5 6 8 8 9
7 7 6 5 5 4 3 3 4 4 4 4 4 5 4 4 4 4 4 5 5 4 4 4 3 4 4 3 4 4 4 5 5 6 4 2 3 4 5 5 7 6 8
8 8 7 6 5 5 5 4 4 5 5 5 5 5 4 4 4 4 5 5 5 5 4 4 4 4 3 4 4 5 6 6 6 6 5 4 3 3 4 4 4 4 4
9 8 7 6 5 5 5 5 5 5 5 5 5 5 4 4 3 4 4 5 5 5 5 5 4 5 5 4 4 5 7 6 6 6 5 4 3 3 3 3 4 3 3
10 9 7 6 6 5 5 5 6 5 5 5 5 5 4 3 5 5 5 4 4 4 4 4 4 5 6 8 8 8 8 7 7 5 4 5 4 3 3 4 4 3 1
10 9 8 8 7 6 6 6 5 5 5 5 4 4 4 4 5 6 7 5 4 4 3 3 4 4 5 5 8 9 8 7 6 5 6 4 4 4 5 4 3 3 2
10 9 8 8 7 7 6 6 5 4 5 4 4 3 3 3 6 7 8 6 6 5 4 4 4 4 4 5 6 6 6 5 4 4 4 4 4 5 5 5 5 4 3
10 10 9 9 9 8 7 6 5 5 4 3 3 3 3 3 5 7 7 5 5 5 5 4 4 4 5 7 7 7 6 4 7 8 7 6 7 8 8 6 5 3 2
10 10 10 10 9 9 8 6 4 4 4 4 3 2 3 2 3 6 6 4 4 3 3 4 5 5 5 6 6 6 5 3 3 5 6 6 6 6 6 5 4 3 2
10 10 9 9 9 8 7 6 6 5 5 4 3 2 2 2 2 4 5 4 4 3 2 2 2 5 6 6 5 4 4 4 4 4 4 4 4 3 3 3 3 3 2
10 10 10 9 9 8 8 7 7 7 6 4 3 2 1 1 2 3 5 4 5 4 2 1 1 4 5 5 4 5 6 5 4 4 3 2 2 1 1 2 2 2 2
11 10 9 9 8 8 9 8 7 6 5 4 4 3 2 1 1 2 4 5 5 3 2 2 3 4 5 4 4 5 5 3 3 3 2 1 0 0 1 1 2 3 2
11 10 9 10 9 8 7 7 7 7 6 5 5 4 3 2 2 2 2 3 3 3 2 3 4 5 4 4 3 3 2 2 2 2 1 1 1 1 1 1 1 1 1
11 10 9 8 8 7 6 6 7 6 7 7 6 5 5 5 5 6 6 4 4 3 3 3 2 2 2 2 2 2 2 2 2 1 1 1 1 1 1 1 1 1 1
9 9 8 7 7 7 6 4 2 3 6 8 7 7 5 5 6 8 8 6 6 7 5 2 2 2 2 2 2 2 1 2 2 2 2 2 2 2 1 1 1 1 1
9 8 7 7 8 7 7 7 5 2 2 4 6 8 7 7 7 8 8 6 5 7 4 3 3 3 3 3 3 3 2 2 2 2 2 2 2 2 2 1 1 1 2
7 8 7 7 7 7 7 6 6 6 4 3 3 6 8 8 8 7 7 7 3 3 3 4 4 4 3 3 3 3 3 2 2 2 3 3 3 3 3 3 3 3 3
7 6 6 6 6 6 6 6 6 6 5 4 2 2 5 6 6 6 8 5 5 5 5 4 4 4 4 4 3 3 3 3 3 3 3 3 3 3 3 3 3 4 3
6 8 7 6 6 6 6 6 6 6 6 5 5 5 4 5 4 5 6 5 6 5 5 5 5 5 4 4 4 3 4 4 4 4 4 3 3 3 4 4 3 3 4
5 6 8 6 6 7 7 7 7 7 7 6 6 6 9 7 7 7 7 7 7 7 6 6 5 5 5 4 4 4 5 4 4 4 4 4 4 3 4 4 4 4 4
5 6 7 7 6 6 7 7 7 7 7 7 5 5 10 7 6 6 7 7 7 7 6 6 6 5 5 5 5 5 5 5 5 4 4 4 4 4 4 4 4 3 3
6 6 6 6 6 6 6 6 6 7 7 7 6 6 6 7 7 7 7 7 6 7 7 7 6 5 6 7 7 6 5 6 5 5 5 4 4 4 4 4 4 4 4
6 6 6 6 6 6 7 7 7 7 7 6 6 7 7 7 8 8 7 6 6 6 7 7 7 7 8 7 7 7 7 7 7 6 7 5 5 4 3 3 4 5 5
5 5 6 6 6 6 7 7 6 7 7 7 7 7 7 7 7 7 6 6 7 7 7 8 8 8 9 9 8 7 8 8 7 6 6 5 4 4 3 4 3 4 4
4 5 5 5 5 6 7 7 7 7 7 7 7 6 7 7 7 7 6 6 7 6 7 7 8 9 9 9 9 9 8 8 8 7 6 5 4 3 3 3 4 4 4
Wind_Direction
164 159 152 149 146 135 131 131 121 106 103 96 84 74 73 70 70 76 68 65 73 59 56 72 66 75 99 114 126 129 133 133 136 115 94 94 93 95 88 88 86 83 81
164 156 154 147 140 135 134 128 117 107 97 98 95 83 73 70 70 76 75 69 71 64 60 70 63 73 77 85 104 113 125 133 140 135 117 102 98 107 104 95 86 83 81
155 151 147 146 144 143 138 125 116 111 101 89 86 86 80 74 72 72 78 74 71 66 67 75 69 80 79 81 95 106 111 118 124 133 127 105 94 105 101 91 84 76 78
154 153 154 161 160 150 135 123 114 110 104 96 89 85 83 79 77 77 78 76 72 64 63 70 70 80 90 96 103 110 114 113 117 124 123 114 105 105 110 111 101 82 73
157 160 166 164 155 139 129 122 117 109 107 102 94 83 78 80 82 90 87 84 78 71 62 60 69 83 88 97 116 122 123 122 125 126 127 122 121 127 133 133 127 112 81
160 164 161 153 148 140 134 127 116 107 102 96 92 91 80 77 89 96 102 94 86 82 74 58 63 64 80 88 98 108 123 134 140 139 138 142 152 150 137 139 137 129 114
162 162 161 159 155 150 144 133 126 120 110 100 95 94 86 85 96 98 98 99 89 79 75 69 72 65 74 90 90 88 88 100 125 143 146 156 163 169 154 142 136 128 137
159 159 160 159 153 147 143 141 134 125 119 113 107 102 97 98 104 102 98 88 81 69 63 70 82 71 79 100 99 89 79 75 97 126 145 154 154 158 156 151 146 129 105
164 164 163 161 156 153 151 149 143 134 126 122 122 116 111 105 109 111 105 96 88 70 60 62 74 78 83 104 105 101 90 74 76 92 106 116 123 132 140 133 134 135 135
172 170 164 161 160 162 161 154 143 140 138 131 118 112 117 122 129 123 115 112 102 86 62 54 59 74 88 107 115 116 110 97 90 84 80 87 102 119 136 153 160 153 142
163 161 159 158 161 163 158 152 144 137 131 125 118 101 100 116 141 141 131 125 128 114 90 61 53 69 85 99 113 123 136 126 104 100 95 89 89 96 110 137 166 171 170
158 163 165 163 163 167 161 155 150 146 143 143 137 116 86 103 138 160 152 139 139 130 131 121 91 88 90 98 108 123 123 116 111 106 103 99 99 98 96 102 127 147 184
163 168 166 165 165 163 163 161 158 157 159 168 171 176 188 161 160 166 160 152 144 135 146 149 130 111 97 95 106 121 123 122 124 125 132 140 153 175 99 96 87 95 91
167 169 168 166 166 167 168 168 169 173 176 181 187 194 194 189 194 178 163 154 144 129 121 109 102 97 86 91 98 106 113 131 140 147 147 119 99 116 106 91 106 108 101
168 169 171 173 169 172 169 174 179 187 188 186 194 193 190 206 218 194 177 178 174 165 136 106 95 94 93 95 104 105 111 125 133 145 144 139 134 133 119 116 135 158 208
165 169 176 176 173 171 167 157 132 169 179 186 186 183 202 204 181 176 179 179 171 154 136 141 154 163 173 175 169 165 168 175 178 173 171 176 181 181 179 167 166 185 223
170 171 172 173 173 174 174 177 178 153 145 185 192 190 191 182 176 174 173 169 164 152 156 178 186 191 197 196 192 191 199 197 185 186 192 198 200 199 198 212 215 221 246
167 168 170 174 174 175 179 183 183 183 190 207 212 200 192 185 179 176 162 139 144 168 199 203 206 206 204 202 201 199 198 188 188 196 203 207 204 202 205 217 223 228 239
165 167 173 176 176 174 174 177 185 191 197 197 185 189 191 181 172 171 158 170 190 200 206 209 209 207 207 206 204 201 199 201 205 206 213 216 213 212 221 228 232 230 231
167 168 170 174 174 173 178 187 193 197 199 200 205 197 166 156 175 183 187 195 201 206 206 209 211 211 208 206 204 205 209 213 212 217 223 223 220 217 223 227 230 232 233
169 172 169 173 183 186 190 194 196 198 201 206 212 199 180 188 197 197 197 202 206 209 209 209 211 212 212 208 207 212 215 219 219 223 227 225 222 227 233 230 230 231 235
179 181 183 187 188 191 196 196 195 200 203 204 202 194 187 200 205 205 208 211 213 213 211 207 212 214 212 208 208 212 218 224 226 225 227 226 223 226 227 228 230 232 232
183 185 187 188 189 189 194 198 199 203 207 207 202 196 195 208 213 213 216 217 212 211 209 205 208 213 211 208 209 207 215 224 226 220 219 222 224 225 224 229 233 238 240
189 190 194 195 194 194 200 203 204 208 210 209 206 203 204 209 215 217 216 213 208 206 203 202 206 210 206 203 207 212 219 225 221 214 212 217 221 223 223 232 238 244 247
194 195 200 203 200 203 206 207 208 209 210 211 212 211 209 209 213 216 212 206 203 203 203 203 205 208 210 207 208 214 219 219 218 216 208 206 211 212 215 230 237 242 243
207 206 206 206 205 206 205 209 213 212 212 213 214 214 212 210 211 209 205 202 204 204 202 202 204 206 207 208 213 213 211 211 213 207 197 194 199 206 211 227 237 240 247
Height
1541 1543 1544 1545 1546 1546 1546 1546 1546 1546 1546 1546 1546 1545 1545 1545 1544 1543 1543 1542 1541 1541 1540 1540 1539 1539 1539 1540 1540 1541 1542 1544 1544 1546 1548 1549 1550 1551 1551 1551 1552 1551 1551
1540 1542 1543 1544 1545 1545 1546 1546 1546 1546 1545 1545 1545 1545 1544 1544 1543 1542 1542 1541 1541 1540 1540 1539 1539 1539 1539 1539 1539 1540 1541 1542 1543 1544 1547 1549 1550 1551 1551 1552 1552 1552 1552
1539 1541 1542 1543 1544 1544 1545 1545 1545 1545 1545 1545 1544 1544 1544 1543 1543 1542 1541 1541 1540 1540 1539 1539 1539 1539 1538 1538 1539 1540 1541 1542 1543 1544 1546 1548 1549 1550 1551 1551 1552 1552 1552
1537 1539 1541 1542 1543 1543 1544 1544 1545 1544 1544 1544 1544 1543 1543 1543 1543 1542 1542 1541 1541 1540 1540 1539 1539 1539 1539 1539 1539 1540 1540 1541 1543 1544 1545 1547 1548 1550 1550 1551 1552 1552 1552
1535 1538 1539 1541 1542 1542 1543 1543 1543 1543 1543 1543 1543 1543 1543 1543 1543 1542 1542 1541 1541 1540 1540 1540 1539 1539 1539 1539 1540 1540 1541 1541 1542 1544 1545 1547 1548 1549 1550 1551 1551 1552 1552
1533 1535 1537 1539 1540 1541 1542 1542 1542 1542 1542 1542 1542 1542 1542 1542 1543 1542 1542 1541 1541 1541 1540 1540 1540 1540 1540 1540 1540 1541 1541 1542 1543 1544 1545 1546 1547 1549 1550 1551 1551 1551 1552
1530 1533 1535 1537 1538 1539 1540 1541 1540 1541 1540 1541 1542 1542 1542 1542 1543 1542 1542 1541 1541 1541 1541 1540 1540 1540 1540 1540 1541 1541 1542 1543 1544 1545 1545 1546 1547 1548 1549 1550 1551 1551 1551
1528 1530 1533 1535 1536 1537 1538 1539 1539 1540 1540 1541 1542 1542 1542 1542 1543 1542 1542 1542 1541 1541 1541 1541 1541 1541 1541 1541 1542 1542 1542 1543 1544 1545 1545 1547 1548 1549 1549 1550 1551 1551 1552
1526 1528 1530 1533 1534 1535 1536 1537 1538 1539 1540 1540 1541 1542 1542 1542 1542 1542 1542 1542 1542 1542 1542 1542 1541 1541 1541 1542 1542 1543 1543 1544 1545 1545 1546 1547 1548 1548 1549 1550 1550 1551 1551
1523 1526 1528 1530 1532 1534 1535 1536 1538 1539 1539 1540 1541 1541 1542 1542 1542 1542 1543 1542 1542 1542 1542 1542 1542 1542 1542 1543 1543 1543 1544 1544 1545 1546 1546 1547 1547 1548 1549 1550 1550 1550 1550
1521 1524 1526 1528 1530 1531 1533 1535 1536 1538 1539 1540 1540 1541 1541 1542 1542 1542 1542 1543 1543 1542 1543 1543 1542 1543 1543 1543 1544 1544 1544 1545 1545 1546 1547 1547 1548 1548 1549 1549 1549 1550 1550
1519 1521 1523 1525 1526 1528 1530 1533 1534 1536 1537 1539 1539 1540 1541 1541 1542 1542 1542 1542 1543 1543 1543 1543 1543 1543 1544 1544 1544 1544 1545 1545 1546 1546 1547 1547 1548 1548 1549 1549 1549 1549 1549
1515 1518 1519 1521 1523 1526 1528 1530 1532 1534 1535 1536 1538 1538 1539 1540 1541 1541 1541 1542 1543 1543 1543 1544 1544 1544 1544 1544 1544 1545 1545 1546 1546 1546 1547 1547 1548 1548 1549 1549 1549 1549 1549
1511 1513 1515 1517 1520 1523 1525 1528 1530 1531 1533 1534 1535 1536 1537 1538 1539 1540 1540 1541 1541 1542 1543 1543 1543 1544 1544 1544 1544 1545 1545 1545 1546 1546 1546 1547 1547 1548 1548 1548 1548 1548 1548
1507 1510 1512 1515 1517 1519 1522 1525 1527 1529 1531 1532 1533 1535 1535 1536 1538 1538 1539 1539 1540 1541 1541 1542 1542 1543 1543 1543 1543 1544 1544 1545 1545 1545 1546 1546 1546 1547 1547 1547 1547 1547 1547
1503 1506 1509 1512 1515 1517 1520 1523 1525 1527 1528 1529 1531 1532 1533 1535 1535 1536 1537 1538 1538 1539 1540 1540 1541 1541 1542 1542 1542 1543 1543 1544 1544 1544 1544 1545 1545 1545 1546 1546 1546 1546 1545
1501 1504 1506 1509 1512 1514 1517 1519 1521 1524 1525 1526 1528 1529 1530 1531 1532 1533 1534 1535 1536 1537 1537 1538 1539 1540 1540 1541 1541 1541 1542 1543 1543 1543 1543 1543 1544 1544 1544 1544 1544 1544 1544
1499 1502 1505 1507 1509 1512 1514 1517 1519 1520 1522 1523 1525 1526 1527 1528 1529 1530 1531 1532 1533 1534 1535 1536 1537 1538 1538 1539 1539 1540 1540 1541 1541 1541 1541 1542 1542 1542 1542 1542 1542 1541 1541
1497 1499 1502 1505 1506 1508 1511 1513 1516 1518 1519 1520 1522 1523 1524 1525 1526 1527 1528 1529 1530 1531 1532 1533 1534 1535 1536 1536 1537 1537 1538 1538 1538 1539 1539 1539 1539 1539 1539 1539 1539 1539 1538
1494 1497 1499 1501 1503 1505 1507 1510 1512 1514 1515 1517 1518 1519 1521 1521 1522 1523 1524 1525 1526 1527 1529 1530 1531 1532 1533 1534 1534 1535 1535 1535 1536 1536 1536 1536 1537 1537 1537 1536 1536 1536 1535
1492 1494 1496 1498 1500 1501 1503 1505 1507 1510 1511 1513 1514 1516 1517 1518 1518 1519 1521 1521 1523 1524 1525 1526 1528 1529 1530 1531 1531 1532 1532 1532 1532 1533 1533 1533 1533 1533 1533 1533 1533 1533 1532
1489 1491 1492 1494 1496 1497 1499 1501 1503 1505 1506 1507 1509 1511 1512 1514 1515 1515 1517 1518 1519 1520 1522 1523 1524 1525 1526 1527 1528 1528 1529 1529 1529 1529 1529 1529 1530 1530 1529 1529 1529 1529 1528
1485 1487 1488 1490 1492 1494 1496 1497 1499 1501 1502 1503 1505 1506 1507 1508 1510 1511 1512 1513 1515 1516 1517 1518 1519 1521 1522 1523 1524 1524 1525 1525 1525 1525 1525 1525 1525 1525 1525 1525 1525 1524 1524
1481 1482 1484 1486 1488 1489 1491 1493 1495 1496 1497 1499 1500 1501 1502 1504 1505 1506 1507 1509 1510 1511 1512 1514 1515 1516 1517 1518 1519 1520 1520 1521 1521 1521 1521 1521 1521 1521 1520 1520 1520 1520 1520
1477 1478 1481 1482 1483 1485 1487 1489 1490 1492 1493 1494 1496 1497 1498 1499 1500 1501 1502 1504 1505 1506 1507 1509 1510 1511 1513 1514 1514 1515 1516 1516 1516 1516 1516 1516 1515 1515 1515 1515 1515 1515 1515
1474 1475 1477 1478 1479 1481 1483 1485 1486 1487 1489 1490 1491 1492 1493 1494 1495 1496 1497 1499 1500 1501 1502 1504 1505 1506 1507 1508 1509 1510 1511 1511 1511 1511 1511 1511 1511 1510 1510 1510 1510 1510 1510